Temperature
10 11 11 11 11 11 11 11 11 12 11 11 11 12 12 12 12 12 12 12 12 12 12 12 12 12 12 11 11 11 11 10 10 10 10 10 10 10 10 10 10 10 10
10 10 10 10 10 10 11 11 11 11 11 11 11 11 11 11 11 11 11 12 12 12 12 12 12 12 11 11 11 11 11 10 10 10 9 9 9 9 9 9 9 9 10
9 9 9 10 10 10 10 10 10 11 11 11 11 11 11 11 11 11 11 11 11 11 11 11 11 11 11 11 11 11 10 10 10 10 9 9 9 9 9 9 9 9 9
8 9 9 9 9 9 10 10 10 10 10 10 10 10 10 10 10 11 11 11 11 11 11 11 11 11 11 11 11 10 10 10 9 9 9 9 9 8 8 8 8 8 9
8 8 8 8 8 9 9 9 9 9 9 10 10 10 10 10 10 10 10 10 10 10 11 11 11 11 11 10 10 10 10 9 9 9 9 9 9 8 8 8 8 8 8
7 7 7 7 8 8 8 9 9 9 9 9 9 9 10 10 10 10 10 10 10 10 10 10 10 10 10 10 10 10 9 9 9 9 9 8 8 8 8 8 8 8 8
6 6 7 7 7 7 8 8 8 8 8 8 9 9 9 9 9 9 9 9 9 10 10 10 10 10 10 9 9 9 9 9 9 9 8 8 8 8 8 8 8 7 7
5 6 6 6 6 6 7 7 7 7 7 8 8 8 8 8 9 9 9 9 9 9 9 9 9 9 9 9 9 9 9 8 8 8 8 8 8 8 7 7 7 7 6
5 5 5 5 6 6 6 6 6 7 7 7 7 8 8 8 8 8 8 8 8 9 9 9 9 9 9 8 8 8 8 8 8 8 8 7 7 7 7 7 7 7 6
4 4 5 5 5 5 5 6 6 6 6 7 7 7 7 7 7 8 8 8 8 8 8 8 8 8 8 8 8 8 8 7 7 7 7 7 7 7 6 6 6 6 6
3 4 4 4 4 5 5 5 5 5 6 6 6 7 7 7 7 7 7 7 8 8 8 8 8 8 8 8 8 8 7 7 7 7 7 7 6 6 6 6 6 6 5
3 3 3 4 4 4 4 4 5 5 5 6 6 6 6 6 6 6 7 7 7 7 7 7 7 7 7 7 7 7 7 7 7 7 6 6 6 6 6 5 5 5 5
2 2 2 3 3 3 4 4 4 4 5 5 5 6 6 6 6 6 6 7 7 7 7 7 7 7 7 7 7 6 6 6 6 6 6 6 6 5 5 5 5 5 5
2 2 2 2 2 3 3 3 4 4 4 5 5 5 5 6 6 6 6 6 6 6 6 6 6 6 6 6 6 6 6 6 6 5 5 5 5 5 4 4 4 4 4
1 1 1 1 2 2 3 3 3 4 4 4 5 5 5 5 5 5 5 5 5 5 6 6 6 6 6 5 5 5 5 5 5 5 5 4 4 4 4 4 4 3 3
1 1 1 1 1 2 2 2 3 3 3 4 4 4 4 4 5 5 5 5 5 5 5 5 5 5 5 5 5 5 4 4 4 4 4 4 3 3 3 3 3 3 3
0 0 0 0 1 1 1 2 2 2 3 3 3 4 4 4 4 4 4 4 4 4 4 4 4 4 4 4 4 4 4 3 3 4 4 3 3 3 2 2 2 2 2
-0 -0 -0 -0 0 0 1 1 1 2 2 3 3 3 3 3 4 4 3 4 4 4 4 4 4 4 3 3 3 3 3 3 3 3 3 3 3 2 2 2 2 2 1
-0 -0 -1 -1 -0 -0 0 1 1 1 2 2 2 2 3 3 3 3 3 3 3 3 3 3 3 3 3 3 3 2 2 2 2 2 2 2 2 2 1 1 1 1 1
-1 -1 -1 -1 -1 -0 -0 0 1 1 1 1 2 2 2 2 2 2 2 2 2 2 2 2 2 2 2 2 2 2 2 1 1 1 1 1 1 1 1 1 1 0 0
-1 -1 -1 -1 -1 -1 -0 -0 0 0 1 1 1 1 1 1 1 1 1 1 1 1 1 1 1 1 1 1 1 1 1 1 1 1 1 1 0 1 0 0 0 -0 -0
-1 -1 -1 -1 -1 -1 -1 -1 -1 -0 -0 0 0 0 0 0 0 0 1 1 1 1 1 0 0 0 0 0 0 0 0 0 0 0 0 0 -0 -0 -0 -0 -1 -1 -1
-2 -2 -2 -2 -1 -1 -1 -1 -1 -1 -1 -1 -1 -1 -0 -0 -0 -0 -0 -0 -0 -0 -0 -0 -0 -0 -1 -0 -1 -0 -1 -1 -0 -1 -1 -1 -1 -1 -1 -1 -1 -2 -2
-2 -2 -2 -2 -2 -2 -2 -2 -2 -2 -2 -2 -1 -1 -1 -1 -1 -1 -1 -1 -1 -1 -1 -1 -1 -1 -1 -1 -1 -1 -1 -1 -1 -1 -2 -2 -2 -2 -2 -2 -2 -2 -2
-3 -3 -3 -3 -3 -2 -2 -2 -2 -2 -2 -2 -2 -2 -2 -2 -2 -2 -2 -2 -2 -2 -2 -2 -2 -2 -2 -2 -2 -2 -2 -2 -2 -2 -2 -2 -2 -2 -3 -3 -3 -3 -3
-3 -3 -3 -3 -3 -3 -3 -3 -3 -3 -3 -3 -3 -3 -3 -2 -2 -2 -2 -2 -2 -2 -2 -2 -2 -2 -2 -2 -2 -2 -3 -3 -3 -3 -3 -3 -3 -3 -3 -3 -3 -4 -4
Wind_Speed
3 1 1 0 0 1 1 2 3 2 2 2 2 3 3 3 3 3 5 7 8 9 8 6 7 6 6 6 6 4 4 3 3 3 1 2 1 1 2 2 3 3 3
2 2 2 2 1 1 1 1 3 3 3 3 2 2 3 3 3 3 3 6 7 8 7 7 6 7 6 7 6 5 3 2 3 3 2 0 2 2 2 2 2 2 2
2 3 3 3 2 2 2 2 3 2 2 2 1 0 0 0 1 2 2 4 7 7 7 8 7 6 7 7 7 7 6 4 3 3 3 3 4 2 2 2 2 2 1
2 3 3 4 3 3 3 2 2 2 2 2 2 2 2 3 3 3 4 4 6 7 8 8 7 7 6 7 8 7 5 6 4 2 2 2 3 2 2 2 2 2 2
2 3 4 4 4 3 3 2 2 3 2 2 3 3 3 3 2 3 4 4 4 6 7 8 7 7 6 7 7 7 6 5 5 4 2 1 1 1 2 3 2 2 2
3 4 5 5 4 3 2 2 2 3 3 3 3 4 5 4 3 4 5 5 4 4 5 7 7 7 6 7 7 7 8 6 5 4 3 3 3 3 2 3 3 3 3
3 4 5 5 5 4 3 3 3 4 4 3 3 4 5 5 6 6 6 5 5 4 6 6 7 6 6 7 6 6 7 7 7 6 4 4 3 2 2 2 2 2 2
4 5 5 5 5 5 4 4 4 4 4 4 4 5 5 5 5 6 6 6 6 6 7 7 7 7 7 6 6 5 5 6 7 6 5 3 3 2 3 3 2 1 2
5 6 6 5 5 5 5 5 5 5 5 5 5 5 5 5 5 5 6 5 5 4 6 7 7 6 7 6 6 5 5 5 6 6 5 4 3 2 2 2 3 3 3
6 6 6 6 5 5 5 5 5 5 5 5 5 5 5 5 5 5 6 5 5 4 5 7 7 6 6 6 6 5 5 5 5 4 5 4 2 2 1 2 1 2 3
6 6 6 6 6 5 5 5 5 5 5 5 5 5 5 5 4 4 5 5 4 5 6 6 6 7 6 6 6 6 6 7 5 5 6 5 3 3 2 1 1 1 1
6 6 6 6 5 5 5 5 6 5 6 6 6 5 5 4 4 5 5 4 4 4 5 5 5 6 6 6 6 6 6 7 7 6 6 5 3 3 2 2 2 1 1
6 6 6 7 6 6 6 6 6 6 6 5 4 5 4 4 4 5 3 3 4 4 4 5 5 5 6 6 6 6 6 7 7 7 6 6 5 4 2 2 2 2 1
6 6 7 7 7 7 6 6 7 6 5 4 4 4 4 4 4 3 3 3 4 4 4 4 5 5 5 5 6 6 6 6 5 5 6 6 6 5 4 3 3 2 1
6 7 7 8 8 8 7 6 6 6 5 4 4 4 4 3 3 2 2 2 3 4 4 4 4 4 4 5 5 6 5 5 5 5 5 5 5 6 5 4 3 3 2
7 7 8 8 8 8 8 7 7 7 5 4 4 4 3 2 2 1 1 1 2 2 3 4 4 4 4 5 7 6 5 5 6 5 5 4 5 5 5 5 5 4 4
7 8 8 8 8 8 8 8 7 7 5 4 3 3 2 1 1 1 1 1 2 2 3 3 4 4 4 6 7 7 5 5 5 6 5 4 4 4 4 3 2 2 3
7 7 7 7 7 7 7 7 7 6 4 4 4 2 1 1 0 1 1 1 1 2 2 3 3 3 4 6 7 6 5 4 3 3 5 5 5 4 4 3 2 2 2
7 7 7 6 7 7 7 6 6 5 4 4 4 3 1 1 1 1 1 1 1 1 1 2 3 3 3 4 6 6 4 4 3 2 2 4 5 6 5 4 3 1 1
5 6 6 6 6 7 6 5 5 5 4 5 4 3 1 1 1 1 1 1 2 2 2 2 2 3 3 4 5 5 4 4 3 2 2 3 4 5 5 4 4 3 2
6 5 5 5 6 6 5 5 5 5 5 4 3 3 2 2 2 2 2 2 3 3 3 3 3 3 3 4 4 4 3 4 3 3 2 1 2 3 3 2 2 3 2
6 5 5 5 5 5 5 5 6 6 5 3 3 3 3 3 3 3 3 3 3 4 4 4 3 3 3 3 3 3 3 3 3 2 2 2 2 1 1 1 2 2 3
5 5 4 5 5 5 4 4 6 6 4 3 3 3 4 3 2 2 3 3 3 3 3 3 3 2 2 2 3 3 4 4 3 2 3 2 3 3 3 3 3 3 3
4 4 4 4 5 5 4 4 5 5 4 3 3 3 3 3 3 2 2 2 2 2 2 2 2 2 2 2 2 2 3 4 4 3 4 5 6 5 4 3 3 2 1
4 3 3 4 5 5 4 4 4 4 3 3 3 3 2 2 3 3 2 2 1 2 2 2 2 2 1 1 2 2 2 2 3 4 3 3 3 2 2 2 2 2 1
4 3 4 4 5 4 4 4 4 3 2 2 2 2 2 2 2 3 3 5 3 4 4 4 3 2 2 2 2 3 3 4 6 5 3 3 2 1 1 1 1 1 1
Wind_Direction
279 317 347 350 26 331 241 192 196 207 189 181 189 197 197 194 190 184 184 179 176 175 167 167 165 166 173 173 164 157 153 154 138 115 65 346 315 236 224 195 181 185 194
344 351 358 358 354 287 307 247 214 212 205 197 206 214 211 203 198 189 188 183 176 174 174 168 174 175 174 170 167 154 158 166 161 145 134 248 307 293 263 234 212 219 191
312 321 329 320 313 310 302 295 268 237 225 199 165 144 229 246 197 203 208 202 185 179 178 178 174 176 178 181 180 173 167 174 196 175 159 173 220 263 279 249 233 220 226
337 335 329 317 297 281 281 295 302 285 251 196 179 186 213 227 225 209 212 212 192 183 182 183 178 180 184 184 186 179 177 170 186 207 209 184 160 176 250 280 261 242 232
330 320 313 298 294 287 282 286 297 305 286 228 204 205 228 237 233 210 205 210 201 189 186 186 183 185 188 187 185 182 178 182 185 188 184 170 156 163 189 250 274 282 257
320 313 309 309 307 304 295 301 298 289 288 260 229 219 224 231 224 223 214 212 213 204 196 191 190 192 189 188 187 188 186 189 189 189 183 178 179 200 193 226 249 259 265
303 310 322 319 312 307 312 302 281 278 275 265 251 237 227 219 219 223 215 215 216 216 208 200 197 196 194 191 189 189 194 192 191 194 199 202 206 187 181 188 231 262 278
318 316 317 304 300 300 303 312 289 276 270 263 259 252 232 223 226 228 223 216 220 219 204 200 197 194 193 194 190 195 200 196 194 197 194 198 205 190 185 184 185 250 275
317 318 322 317 306 301 300 294 288 286 275 264 260 259 240 231 232 239 227 219 221 215 201 197 197 193 191 191 187 193 197 193 194 192 190 194 202 190 191 183 184 190 241
322 326 326 321 307 298 297 297 285 275 281 272 262 264 246 240 236 238 228 219 215 203 199 197 195 192 192 190 188 189 190 188 194 185 181 191 190 176 175 178 195 194 206
316 319 321 318 313 311 305 305 302 295 288 284 272 262 249 242 240 243 235 219 209 199 199 196 190 188 189 190 191 195 189 188 187 184 181 187 183 179 186 176 185 203 189
320 322 323 327 330 323 316 312 306 298 290 287 285 271 254 239 237 249 240 214 201 197 196 190 187 189 190 190 189 192 189 187 187 188 181 184 179 178 189 188 193 210 210
326 330 335 337 329 322 323 316 311 303 293 289 287 285 271 247 244 253 236 208 190 185 186 186 186 187 188 190 192 187 189 187 185 185 185 185 177 185 194 190 197 218 229
319 327 332 329 327 325 320 315 312 307 307 303 295 282 264 252 251 240 224 208 184 178 186 190 186 183 187 188 188 185 185 183 180 184 189 187 185 189 190 194 198 198 188
325 326 323 321 323 327 324 318 316 312 312 308 297 288 267 255 248 226 215 208 189 182 179 178 180 178 181 187 182 178 176 176 175 181 188 188 187 191 195 199 195 184 188
311 314 316 318 320 320 321 322 319 314 316 308 296 292 267 240 212 217 205 183 176 166 162 173 182 187 190 181 176 172 165 169 174 182 185 184 186 194 199 202 199 192 199
301 304 306 306 307 310 314 317 313 316 320 313 299 295 283 237 208 220 172 160 152 149 159 174 181 184 180 174 173 165 158 159 176 183 182 183 188 185 189 190 182 216 236
299 299 300 304 308 311 314 315 317 322 327 328 322 320 321 325 335 134 147 153 137 148 153 158 164 161 165 166 164 159 148 146 150 174 183 182 184 190 184 180 189 218 249
289 291 293 298 305 311 314 320 325 331 339 334 330 332 342 354 63 102 127 113 117 117 132 142 131 133 144 146 151 143 138 136 142 155 167 181 188 194 184 181 186 203 248
299 303 307 312 313 315 322 325 326 335 335 327 321 328 354 46 65 74 64 60 94 99 91 95 111 126 135 143 142 131 134 138 147 148 156 181 195 198 191 186 182 202 227
303 310 315 315 312 320 329 332 336 330 326 326 337 357 30 56 61 59 63 80 86 89 85 82 81 91 107 122 128 131 137 152 156 153 153 177 182 191 202 199 188 212 196
306 310 312 313 317 327 336 337 332 330 337 351 10 19 32 42 51 70 68 75 89 94 92 88 78 75 82 93 105 104 106 127 141 153 160 167 157 140 123 92 117 103 90
297 304 306 312 321 328 337 330 326 336 352 8 21 29 35 42 49 76 84 78 85 97 100 103 98 81 70 78 86 94 96 95 97 116 127 118 99 85 84 82 86 83 94
291 299 307 312 316 322 328 324 330 343 8 16 15 30 45 41 43 50 71 90 94 99 102 106 105 96 81 72 75 81 86 89 90 95 99 88 79 69 66 64 56 53 82
286 292 293 294 301 314 319 328 340 352 10 18 19 29 40 50 47 42 45 64 71 108 123 120 118 117 106 81 73 94 109 120 123 109 95 87 81 69 62 65 69 57 54
287 295 295 296 302 311 315 327 340 351 9 14 17 31 42 46 57 61 47 38 50 61 69 81 95 102 111 102 87 84 99 107 115 105 109 107 105 103 79 64 43 32 34
Height
1503 1503 1503 1504 1505 1505 1506 1506 1506 1507 1508 1508 1509 1510 1510 1512 1514 1515 1516 1518 1519 1521 1523 1524 1526 1528 1528 1530 1531 1533 1534 1535 1536 1537 1537 1538 1539 1539 1539 1539 1539 1539 1538
1500 1500 1501 1501 1501 1502 1502 1503 1503 1504 1504 1505 1506 1507 1508 1508 1510 1511 1512 1513 1515 1517 1519 1520 1522 1524 1525 1526 1527 1529 1530 1531 1532 1533 1534 1534 1536 1535 1535 1535 1535 1535 1535
1498 1498 1498 1498 1498 1498 1499 1499 1500 1501 1501 1502 1503 1504 1505 1505 1506 1507 1508 1509 1511 1513 1514 1516 1517 1519 1521 1521 1522 1524 1526 1526 1528 1530 1531 1531 1530 1531 1531 1531 1531 1531 1531
1498 1497 1497 1496 1496 1496 1496 1497 1497 1498 1498 1498 1499 1499 1500 1500 1500 1502 1504 1505 1507 1508 1510 1512 1513 1515 1516 1517 1518 1520 1522 1523 1524 1525 1527 1527 1527 1528 1527 1527 1527 1527 1527
1496 1496 1495 1494 1493 1493 1493 1493 1494 1494 1494 1495 1495 1496 1496 1497 1498 1499 1500 1501 1502 1504 1505 1507 1509 1510 1512 1513 1514 1516 1517 1519 1520 1521 1522 1522 1523 1524 1524 1522 1523 1523 1524
1495 1494 1493 1492 1490 1490 1490 1490 1490 1490 1490 1491 1491 1492 1492 1492 1493 1494 1495 1496 1497 1499 1500 1502 1504 1505 1507 1508 1509 1511 1512 1514 1516 1517 1518 1518 1519 1519 1520 1519 1518 1519 1519
1493 1492 1490 1488 1487 1487 1486 1486 1486 1486 1486 1486 1487 1487 1487 1488 1488 1489 1490 1490 1491 1493 1494 1496 1498 1500 1501 1503 1505 1506 1508 1509 1511 1512 1514 1515 1516 1516 1516 1516 1515 1515 1515
1491 1489 1487 1486 1485 1484 1483 1482 1482 1482 1482 1482 1482 1483 1483 1483 1483 1484 1485 1485 1486 1487 1489 1491 1493 1495 1497 1498 1500 1502 1503 1505 1506 1508 1509 1510 1511 1512 1513 1513 1512 1511 1511
1488 1486 1484 1483 1481 1480 1479 1479 1478 1478 1478 1478 1478 1477 1478 1478 1478 1479 1479 1480 1480 1482 1483 1486 1488 1490 1492 1494 1496 1497 1498 1500 1501 1503 1504 1505 1506 1507 1509 1509 1509 1510 1507
1486 1484 1482 1480 1479 1477 1476 1475 1475 1474 1474 1474 1473 1473 1473 1473 1474 1473 1474 1474 1475 1476 1478 1480 1482 1484 1487 1489 1490 1492 1493 1495 1497 1498 1499 1501 1502 1503 1504 1505 1505 1506 1505
1484 1482 1480 1477 1475 1474 1473 1472 1471 1470 1469 1468 1468 1468 1468 1468 1469 1468 1468 1469 1469 1471 1472 1474 1476 1478 1481 1483 1485 1486 1488 1490 1491 1493 1495 1496 1497 1498 1499 1500 1501 1501 1501
1482 1480 1477 1474 1472 1471 1469 1468 1467 1465 1464 1464 1463 1463 1463 1463 1463 1463 1463 1464 1464 1466 1467 1469 1471 1473 1475 1477 1479 1481 1482 1484 1486 1488 1489 1491 1493 1494 1495 1496 1496 1497 1497
1480 1477 1474 1471 1469 1467 1466 1464 1462 1461 1460 1459 1459 1458 1458 1458 1458 1458 1459 1459 1460 1461 1462 1464 1465 1467 1470 1472 1474 1476 1477 1479 1482 1484 1485 1486 1488 1489 1490 1491 1492 1492 1492
1478 1475 1471 1469 1467 1464 1462 1460 1458 1457 1456 1455 1454 1454 1454 1454 1454 1454 1454 1454 1455 1456 1458 1459 1461 1463 1465 1467 1469 1471 1473 1475 1477 1479 1481 1482 1483 1484 1486 1487 1488 1488 1488
1476 1473 1470 1467 1464 1461 1459 1457 1455 1453 1452 1451 1450 1450 1450 1450 1450 1450 1450 1451 1451 1452 1453 1455 1457 1458 1460 1462 1464 1466 1468 1470 1472 1474 1476 1478 1479 1480 1482 1483 1483 1484 1483
1474 1471 1468 1465 1462 1459 1456 1453 1451 1450 1448 1447 1446 1446 1446 1445 1445 1446 1446 1447 1447 1448 1449 1451 1453 1454 1455 1458 1460 1462 1463 1465 1467 1470 1472 1473 1475 1476 1478 1479 1479 1480 1479
1473 1469 1466 1463 1460 1458 1454 1451 1449 1446 1444 1444 1443 1442 1442 1441 1441 1442 1442 1443 1443 1444 1445 1447 1449 1450 1452 1454 1456 1458 1460 1461 1463 1465 1467 1469 1470 1472 1473 1474 1475 1475 1475
1470 1467 1464 1461 1458 1455 1452 1449 1446 1444 1442 1441 1439 1439 1438 1438 1438 1439 1439 1440 1440 1441 1442 1444 1446 1447 1449 1450 1452 1454 1456 1458 1459 1461 1463 1464 1466 1467 1468 1470 1470 1470 1471
1469 1466 1462 1459 1456 1453 1450 1446 1443 1441 1439 1438 1437 1436 1435 1435 1435 1436 1436 1437 1438 1439 1440 1441 1443 1444 1446 1447 1449 1451 1452 1453 1455 1458 1459 1461 1462 1463 1464 1465 1465 1465 1466
1466 1463 1460 1457 1453 1450 1447 1444 1441 1438 1437 1436 1435 1434 1433 1433 1433 1433 1434 1435 1436 1437 1439 1440 1441 1442 1444 1445 1446 1448 1449 1450 1452 1454 1456 1457 1458 1459 1460 1461 1461 1461 1461
1463 1460 1457 1454 1451 1448 1445 1442 1439 1437 1436 1435 1434 1433 1432 1432 1432 1432 1433 1434 1435 1436 1437 1438 1439 1441 1442 1443 1445 1446 1447 1448 1450 1451 1452 1453 1454 1455 1456 1457 1457 1457 1457
1460 1457 1454 1452 1449 1447 1444 1441 1438 1436 1435 1434 1433 1432 1432 1431 1432 1432 1432 1433 1433 1434 1436 1437 1438 1440 1442 1442 1443 1444 1445 1446 1447 1448 1449 1450 1451 1452 1452 1452 1452 1453 1453
1458 1455 1452 1450 1447 1445 1442 1439 1437 1436 1434 1433 1433 1432 1432 1432 1432 1431 1432 1432 1433 1434 1435 1436 1437 1438 1440 1441 1442 1443 1444 1444 1445 1446 1447 1448 1448 1449 1449 1449 1449 1449 1450
1455 1453 1450 1447 1445 1443 1441 1439 1437 1435 1434 1433 1432 1431 1431 1431 1431 1431 1432 1432 1433 1434 1434 1435 1436 1437 1439 1440 1441 1441 1442 1442 1443 1444 1445 1446 1446 1447 1447 1447 1447 1447 1447
1452 1450 1448 1445 1443 1441 1439 1438 1436 1434 1433 1432 1431 1431 1431 1431 1431 1431 1432 1433 1433 1434 1435 1435 1436 1437 1438 1439 1440 1440 1441 1441 1442 1442 1443 1444 1444 1445 1444 1445 1445 1445 1445
1450 1448 1445 1443 1441 1439 1438 1436 1435 1434 1432 1431 1431 1431 1431 1430 1431 1431 1432 1433 1434 1435 1435 1436 1437 1437 1438 1439 1439 1440 1440 1441 1441 1441 1441 1442 1442 1443 1442 1442 1442 1443 1442